CW3175 Weather Reports


time (UTC)temp
F
wind
direction
speed
knots
gust
knots
rain 1hr
in
rain 24hr
in
rain mn
in
humidity
%
barometer
mb
20141219171822 33 304 0.9 3.5 0.00 0.00 0.00 64 1025.8
20141219170301 32 351 0.0 0.0 0.00 0.00 0.00 65 1025.8
20141219164743 32 351 0.0 0.0 0.00 0.00 0.00 65 1026.1
20141219163235 32 351 0.0 3.5 0.00 0.00 0.00 66 1026.1
20141219161728 32 351 0.0 2.6 0.00 0.00 0.00 67 1026.2
20141219160226 31 351 0.0 0.0 0.00 0.00 0.00 67 1026.2
20141219154646 31 351 0.9 3.5 0.00 0.00 0.00 67 1026.2
20141219153143 31 16 1.7 5.2 0.00 0.00 0.00 68 1026.0
20141219151634 31 11 0.9 5.2 0.00 0.00 0.00 68 1025.7
20141219150132 31 327 1.7 5.2 0.00 0.00 0.00 68 1025.6
20141219144623 31 350 1.7 5.2 0.00 0.00 0.00 68 1025.6
20141219143123 31 311 0.9 5.2 0.00 0.00 0.00 68 1025.3
20141219141622 31 292 0.9 4.3 0.00 0.00 0.00 69 1025.3
20141219140119 31 324 0.9 4.3 0.00 0.00 0.00 70 1025.2
20141219134617 31 326 0.9 5.2 0.00 0.00 0.00 71 1025.2
20141219133118 31 312 1.7 6.1 0.00 0.00 0.00 71 1025.2
20141219131600 31 292 0.0 3.5 0.00 0.00 0.00 72 1025.3
20141219130030 31 319 0.9 4.3 0.00 0.00 0.00 73 1025.0
20141219124523 30 13 0.9 4.3 0.00 0.00 0.00 73 1025.0
20141219123023 30 325 0.0 3.5 0.00 0.00 0.00 74 1024.9
20141219121524 30 18 0.0 3.5 0.00 0.00 0.00 76 1025.0
20141219120023 30 349 0.0 3.5 0.00 0.00 0.00 78 1024.7
20141219114520 30 349 0.0 4.3 0.00 0.00 0.00 78 1024.7
20141219113017 30 349 0.0 4.3 0.00 0.00 0.00 79 1024.6
20141219111510 30 325 0.0 4.3 0.00 0.00 0.00 80 1024.6
20141219110010 30 336 0.9 3.5 0.00 0.00 0.00 81 1024.5
20141219104452 30 298 0.0 5.2 0.00 0.00 0.00 81 1024.6
20141219102951 30 292 0.9 3.5 0.00 0.00 0.00 81 1024.6
20141219101448 30 284 0.9 4.3 0.00 0.00 0.00 81 1024.5
20141219095921 30 316 1.7 6.1 0.00 0.00 0.00 81 1024.5
20141219094359 30 338 0.9 6.1 0.00 0.00 0.00 80 1024.4
20141219092901 30 322 0.0 3.5 0.00 0.00 0.00 81 1024.4
20141219091348 30 322 1.7 5.2 0.00 0.00 0.00 80 1024.3
20141219085841 29 317 1.7 5.2 0.00 0.00 0.00 80 1024.5
20141219084337 29 292 1.7 6.1 0.00 0.00 0.00 80 1024.5
20141219082828 29 294 1.7 7.8 0.00 0.00 0.00 79 1024.5
20141219081329 29 327 2.6 8.7 0.00 0.00 0.00 79 1024.5
20141219075828 29 309 2.6 7.8 0.00 0.00 0.00 79 1024.4
20141219074327 29 292 2.6 8.7 0.00 0.00 0.00 79 1024.3
20141219072827 29 305 1.7 6.1 0.00 0.00 0.00 78 1024.0
20141219071328 30 290 0.9 5.2 0.00 0.00 0.00 78 1024.2
20141219065829 29 288 2.6 8.7 0.00 0.00 0.00 79 1024.1
20141219064321 29 298 2.6 7.0 0.00 0.00 0.00 79 1024.0
20141219062816 29 281 1.7 7.8 0.00 0.00 0.00 81 1024.0
20141219061305 29 302 2.6 6.1 0.00 0.00 0.00 81 1024.0
20141219055802 30 350 1.7 6.1 0.00 0.00 0.00 78 1024.1
20141219054255 30 296 1.7 5.2 0.00 0.00 0.00 76 1024.1
20141219052755 30 271 1.7 7.8 0.00 0.00 0.00 74 1024.0
20141219051256 30 276 1.7 6.1 0.00 0.00 0.00 72 1024.1
20141219045751 30 300 0.9 5.2 0.00 0.00 0.00 71 1024.0
20141219044250 30 300 0.9 4.3 0.00 0.00 0.00 70 1023.9
20141219042736 30 284 0.9 4.3 0.00 0.00 0.00 69 1023.9
20141219041236 30 276 0.9 6.1 0.00 0.00 0.00 69 1024.0
20141219035727 30 300 0.9 5.2 0.00 0.00 0.00 68 1023.8
20141219034225 30 275 0.0 4.3 0.00 0.00 0.00 68 1023.8
20141219032710 30 313 0.0 2.6 0.00 0.00 0.00 68 1023.9
20141219031206 30 314 0.0 3.5 0.00 0.00 0.00 68 1023.9
20141219025653 30 311 0.0 2.6 0.00 0.00 0.00 68 1023.8
20141219024153 30 306 0.0 0.0 0.00 0.00 0.00 68 1023.6
20141219022634 30 306 0.9 3.5 0.00 0.00 0.00 67 1023.7
20141219021127 30 282 0.0 4.3 0.00 0.00 0.00 68 1024.0
20141219015620 30 315 0.9 3.5 0.00 0.00 0.00 68 1024.0
20141219014116 30 320 0.0 3.5 0.00 0.00 0.00 68 1023.9
20141219012559 30 331 0.0 3.5 0.00 0.00 0.00 68 1024.0
20141219011036 29 107 0.0 0.0 0.00 0.00 0.00 68 1024.0
20141219005532 29 107 0.0 0.0 0.00 0.00 0.00 68 1024.0
20141219004022 29 107 0.0 0.0 0.00 0.00 0.00 68 1024.0
20141219002522 29 107 0.0 0.0 0.00 0.00 0.00 67 1024.1
20141219001013 29 107 0.0 0.0 0.00 0.00 0.00 68 1023.6
20141218235512 29 107 0.0 1.7 0.00 0.00 0.00 67 1023.6
20141218234008 29 107 0.0 0.0 0.00 0.00 0.00 67 1023.5
20141218232446 29 107 0.0 1.7 0.00 0.00 0.00 67 1023.5
20141218230937 29 107 0.0 0.0 0.00 0.00 0.00 66 1023.4
20141218225405 29 108 0.0 1.7 0.00 0.00 0.00 66 1023.3
20141218223851 29 109 0.0 1.7 0.00 0.00 0.00 65 1023.3
20141218222349 29 38 0.0 1.7 0.00 0.00 0.00 64 1023.4
20141218220848 30 10 0.0 3.5 0.00 0.00 0.00 63 1023.3
20141218215348 30 277 0.0 2.6 0.00 0.00 0.00 61 1023.3
20141218213831 30 269 0.0 3.5 0.00 0.00 0.00 61 1023.2
20141218212323 31 267 0.0 1.7 0.00 0.00 0.00 61 1023.2
20141218205253 30 260 0.0 3.5 0.00 0.00 0.00 61 1023.1
20141218203728 31 261 0.9 3.5 0.00 0.00 0.00 60 1023.0
20141218202228 30 240 0.0 6.1 0.00 0.00 0.00 61 1023.0
20141218200659 29 217 0.0 4.3 0.00 0.00 0.00 62 1023.1
20141218195153 29 215 0.0 5.2 0.00 0.00 0.00 62 1023.2
20141218193651 29 227 0.9 5.2 0.00 0.00 0.00 63 1023.2
20141218192151 29 190 0.0 6.1 0.00 0.00 0.00 62 1023.3
20141218190625 29 217 1.7 6.1 0.00 0.00 0.00 63 1023.5
20141218185125 29 239 0.9 6.1 0.00 0.00 0.00 63 1023.6
20141218183609 28 167 1.7 6.1 0.00 0.00 0.00 63 1023.7
20141218182109 29 230 0.9 7.0 0.00 0.00 0.00 62 1024.0
20141218180604 28 261 0.9 5.2 0.00 0.00 0.00 64 1024.1
20141218175054 28 195 0.0 2.6 0.00 0.00 0.00 65 1024.6
20141218173552 27 309 0.9 3.5 0.00 0.00 0.00 65 1024.7